Flag for Germany Weather past 2 weeks in Meiningen, Thuringia, Germany

Now
93 °F

Overcast.


Feels Like: 92 °F
Forecast: 65 / 77 °F
Wind: 6 mph from South

Location: Meiningen

Current Time: Jul 5, 2015 at 8:05:24 PM

Latest Report: Jul 5, 2015 at 7:00 PM


Visibility: 19 mi

Pressure: 29.81 "Hg

Humidity: 30%

Dew point: 58 °F

Location of MeiningenLocation

Historic Weather in Meiningen — Graph

°F

Meiningen temperature yesterday

Maximum temperature yesterday: 94 °F (at 4:00 PM)
Minimum temperature yesterday: 69 °F (at 6:00 AM)
Average temperature yesterday: 82 °F

Past Weeks' High & Low Weather Summary

 TemperatureHumidityPressure
High94 °F (Jul 5, 4:00 PM)100% (Jun 22, 7:00 AM)30.26 "Hg (Jun 22, 7:00 AM)
Low47 °F (Jun 23, 6:00 AM)26% (Jul 4, 4:00 PM)29.66 "Hg (Jun 23, 1:00 AM)
Average66 °F65%30.09 "Hg
* Reported Jun 20 7:00 PM — Jul 5 7:00 PM, Meiningen, Weather by CustomWeather, © 2015

Note: Actual official high and low records may vary slightly from our data, if they occured in-between our weather recording intervals... More about our weather records

Advertising

Meiningen weather history for previous 24 hours

 ConditionsComfort  
Time TempWeatherWind HumidityBarometerVisibility
7:00 PM
Sun, Jul 5
93 °FOvercast.6 mph30%29.81 "Hg19 mi
6:00 PM94 °FOvercast.6 mph29%29.83 "Hg18 mi
4:00 PM94 °FPassing clouds.3 mph28%29.89 "Hg17 mi
3:00 PM94 °FSunny.5 mph29%29.91 "Hg11 mi
2:00 PM94 °FScattered clouds.3 mph31%29.93 "Hg16 mi
1:00 PM92 °FOvercast.2 mph34%29.96 "Hg16 mi
12:00 PM89 °FPartly sunny.3 mph42%29.98 "Hg14 mi
10:00 AM82 °FPartly sunny.3 mph52%30.02 "Hg13 mi
9:00 AM81 °FScattered clouds.1 mph59%30.03 "Hg14 mi
8:00 AM73 °FPassing clouds.1 mph74%30.06 "Hg10 mi
7:00 AM70 °FPartly sunny.1 mph77%30.07 "Hg11 mi
4:00 AM70 °FPassing clouds.1 mph75%30.08 "Hg15 mi
3:00 AM70 °FOvercast.1 mph77%30.09 "Hg14 mi
2:00 AM71 °FOvercast.1 mph71%30.10 "Hg17 mi
1:00 AM72 °FOvercast.1 mph69%30.09 "Hg17 mi
12:00 AM73 °FOvercast.2 mph66%30.09 "Hg19 mi
10:00 PM
Sat, Jul 4
77 °FWarm.3 mph58%30.07 "Hg19 mi
9:00 PM85 °FOvercast.3 mph44%30.04 "Hg19 mi
8:00 PM92 °FOvercast.2 mph31%30.01 "Hg19 mi
Weather by CustomWeather, © 2015

See weather overviewHow to use our weather pages